Simultaneous Nadir Overpasses (SNOs) Predictions

Prediction of SNOs between NOAA-20 and METOP-B Satellite Orbit:

Table of predicted SNOs for the next 14.0 days since TLE Epoch: 8/21/2023
Index Date (NOAA-20) Time (NOAA-20) Lat,Lon (NOAA-20) SZA (NOAA-20 ) Date (METOP-B) Time (METOP-B) Lat,Lon (METOP-B) SZA (METOP-B ) Distance(km) Time Diff (sec)
1 09/03/2023 20:00:09 -73.66, 49.98 113.59 09/03/2023 20:01:15 -73.63, 52.97 113.76 93.58 66
2 09/03/2023 20:50:51 73.48,-142.28 66.23 09/03/2023 20:51:59 73.41,-140.21 66.05 66.29 68
3 09/03/2023 21:41:33 -73.37, 25.28 113.89 09/03/2023 21:42:43 -73.31, 26.90 114.03 52.08 70
4 09/03/2023 22:32:14 73.13,-166.89 65.87 09/03/2023 22:33:27 73.08,-166.26 65.78 21.03 73
5 09/03/2023 23:22:57 -73.08, 0.55 114.18 09/03/2023 23:24:10 -73.04, 0.96 114.25 14.01 73
6 09/04/2023 00:13:40 72.94, 168.15 65.69 09/04/2023 00:14:51 72.96, 168.13 65.69 2.30 71
7 09/04/2023 01:04:24 -72.93, -24.52 114.31 09/04/2023 01:05:33 -72.96, -24.54 114.30 3.23 69
8 09/04/2023 01:55:10 72.95, 142.76 65.72 09/04/2023 01:56:13 72.93, 142.74 65.70 1.63 63



Historial Predications of SNOs between NOAA-20 and METOP-B
